Regional Weather Roundup
Issued by NWS Little Rock, AR

Home | Current Version | Previous Version | Text Only | Print | Product List | Glossary Off
Versions: 1 2 3 4 5 6 7 8 9 10 11 12 13 14 15 16 17 18 19 20 21 22 23 24 25 26 27 28 29 30 31 32 33 34 35 36 37 38 39 40 41 42 43 44 45 46 47 48 49 50

000
ASUS44 KLZK 221805
RWRLZK

WEATHER ROUNDUP FOR ARKANSAS
NATIONAL WEATHER SERVICE LITTLE ROCK AR
100 PM CDT WED MAR 22 2017

NOTE: "FAIR" INDICATES FEW OR NO CLOUDS BELOW 12,000 FEET WITH NO
SIGNIFICANT WEATHER AND/OR OBSTRUCTIONS TO VISIBILITY.

ARZ001-003-010-029-221900-
NORTHWEST ARKANSAS

CITY           SKY/WX    TMP DP  RH WIND       PRES   REMARKS
FAYETTEVILLE   CLOUDY    57  43  59 SE13G20   30.24F
6HR MIN TEMP:  46; 6HR MAX TEMP:  58;

FORT SMITH     CLOUDY    56  41  57 E14       30.24F
6HR MIN TEMP:  53; 6HR MAX TEMP:  57;

HARRISON       CLOUDY    49  35  58 SE12      30.29F
6HR MIN TEMP:  44; 6HR MAX TEMP:  49;

BENTONVILLE    CLOUDY    52  36  54 SE12G18   30.26S
6HR MIN TEMP:  46; 6HR MAX TEMP:  52;

ROGERS         CLOUDY    51  37  58 E12       30.26R
6HR MIN TEMP:  45; 6HR MAX TEMP:  51; 6HR PCP: TRACE;

SILOAM SPGS    CLOUDY    55  37  50 E8        30.24S
6HR MIN TEMP:  46; 6HR MAX TEMP:  55;

HIGHFILL       CLOUDY    53  37  54 E12       30.25S
6HR MIN TEMP:  47; 6HR MAX TEMP:  53;

SPRINGDALE     CLOUDY    52  39  62 E12G18    30.27S
$$

ARZ004-005-016-221900-
NORTH CENTRAL ARKANSAS

CITY           SKY/WX    TMP DP  RH WIND       PRES   REMARKS
BATESVILLE     CLOUDY    57  37  47 E14G21    30.33F
6HR MIN TEMP:  46; 6HR MAX TEMP:  57; 6HR PCP:  0.01;

FLIPPIN        CLOUDY    54  34  47 E9        30.29F
6HR MIN TEMP:  46; 6HR MAX TEMP:  54;

MTN HOME       CLOUDY    54  33  45 SE10      30.29
6HR MIN TEMP:  44; 6HR MAX TEMP:  54;

$$

ARZ040-041-221900-
WEST CENTRAL ARKANSAS

CITY           SKY/WX    TMP DP  RH WIND       PRES   REMARKS
MENA           MOSUNNY   70  52  52 E14       30.21F
MOUNT IDA      SUNNY     62  46  55 VRB3      30.22F
6HR MIN TEMP:  54; 6HR MAX TEMP:  62;

$$

ARZ009-017-025-026-028-221900-
NORTHEAST ARKANSAS

CITY           SKY/WX    TMP DP  RH WIND       PRES   REMARKS
CORNING        FAIR      54  36  50 NE16G23   30.37F
JONESBORO      SUNNY     55  40  56 E17G26    30.34F
6HR MIN TEMP:  47; 6HR MAX TEMP:  55;

NEWPORT        SUNNY     55  44  66 NE16      30.32F
6HR MIN TEMP:  47; 6HR MAX TEMP:  56;

WALNUT RIDGE   SUNNY     54  37  54 NE18      30.35F
6HR MIN TEMP:  46; 6HR MAX TEMP:  54;

BLYTHEVILLE    SUNNY     57  38  48 NE16      30.34F
6HR MIN TEMP:  47; 6HR MAX TEMP:  57; 6HR PCP:  0.01;

$$

ARZ022-023-033-042-044-221900-
CENTRAL ARKANSAS

CITY           SKY/WX    TMP DP  RH WIND       PRES   REMARKS
LITTLE ROCK    MOSUNNY   58  45  62 E10G20    30.30F
6HR MIN TEMP:  48; 6HR MAX TEMP:  58;

CONWAY           N/A     57  45  62 E8G16     30.28F
SEARCY         CLOUDY    57  43  59 NE15G22   30.31F
6HR MIN TEMP:  47; 6HR MAX TEMP:  57; 6HR PCP:  0.04;

HOT SPRINGS    MOSUNNY   62  48  60 NE9       30.26F
6HR MIN TEMP:  52; 6HR MAX TEMP:  62;

RUSSELLVILLE   CLOUDY    56  41  57 E12G17    30.28F
6HR MIN TEMP:  49; 6HR MAX TEMP:  56;

CLINTON        CLOUDY    55  41  58 E10       30.30F
$$

ARZ036-221900-
EAST ARKANSAS

CITY           SKY/WX    TMP DP  RH WIND       PRES   REMARKS
WEST MEMPHIS   CLOUDY    56  43  61 NE12      30.30F
6HR MIN TEMP:  47; 6HR MAX TEMP:  56;

$$

ARZ050-053-066-070-073-221900-
SOUTHWEST ARKANSAS

CITY           SKY/WX    TMP DP  RH WIND       PRES   REMARKS
ARKADELPHIA    FAIR      62  49  62 VRB7      30.24F
6HR MIN TEMP:  54; 6HR MAX TEMP:  63;

CAMDEN         MOSUNNY   70  48  46 E8        30.22F
TEXARKANA      CLOUDY    65  52  62 VRB6      30.20F
6HR MIN TEMP:  54; 6HR MAX TEMP:  66;

EL DORADO      SUNNY     68  52  56 N5        30.21F
6HR MIN TEMP:  53; 6HR MAX TEMP:  69;

DE QUEEN       CLOUDY    66  52  60 E13       30.19F
6HR MIN TEMP:  56; 6HR MAX TEMP:  66;

$$

ARZ056-057-069-221900-
SOUTHEAST ARKANSAS

CITY           SKY/WX    TMP DP  RH WIND       PRES   REMARKS
PINE BLUFF     CLOUDY    56  45  66 NE10      30.28S
6HR MIN TEMP:  50; 6HR MAX TEMP:  58;

STUTTGART      SUNNY     59  39  47 NE16G22   30.29F
6HR MIN TEMP:  48; 6HR MAX TEMP:  59;

MONTICELLO     SUNNY     65  49  56 NE7       30.23F
6HR MIN TEMP:  54; 6HR MAX TEMP:  65;


$$





USA.gov is the U.S. government's official web portal to all federal, state and local government web resources and services.